• In Uzbekistan
  • List of Countries
  • For 7 days
  • Water Temperature
  • Weather Map
  • Weather Widgets
  • user-avatar
    Login

    Hourly Weather Larnaka

    Today, 25 August, Sunday

    Time Temperature Precipitation Wind Pressure Humidity
    00:00 +30°C° 0 mm 4 mps 755 mmHg 52%
    01:00 +30°C° 0 mm 4 mps 755 mmHg 51%
    02:00 +29°C° 0 mm 4 mps 755 mmHg 51%
    03:00 +29°C° 0 mm 4 mps 755 mmHg 51%
    04:00 +29°C° 0 mm 3 mps 755 mmHg 51%
    05:00 +28°C° 0 mm 3 mps 755 mmHg 52%
    06:00 +30°C° 0 mm 3 mps 755 mmHg 47%
    07:00 +34°C° 0 mm 3 mps 756 mmHg 42%
    08:00 +36°C° 0 mm 3 mps 756 mmHg 38%
    09:00 +37°C° 0 mm 3 mps 756 mmHg 38%
    10:00 +37°C° 0 mm 4 mps 756 mmHg 38%
    11:00 +39°C° 0 mm 5 mps 757 mmHg 37%
    12:00 +39°C° 0 mm 5 mps 756 mmHg 37%
    13:00 +39°C° 0 mm 6 mps 756 mmHg 36%
    14:00 +39°C° 0 mm 6 mps 756 mmHg 36%
    15:00 +39°C° 0 mm 6 mps 756 mmHg 37%
    16:00 +38°C° 0 mm 6 mps 755 mmHg 38%
    17:00 +36°C° 0 mm 6 mps 755 mmHg 39%
    18:00 +35°C° 0 mm 6 mps 755 mmHg 43%
    19:00 +34°C° 0 mm 6 mps 755 mmHg 47%
    20:00 +32°C° 0 mm 6 mps 755 mmHg 51%
    21:00 +32°C° 0 mm 6 mps 755 mmHg 52%
    22:00 +30°C° 0 mm 6 mps 755 mmHg 52%
    23:00 +30°C° 0 mm 6 mps 755 mmHg 53%

    Tomorrow, 26 August, Monday

    Time Temperature Precipitation Wind Pressure Humidity
    00:00 +30°C° 0 mm 5 mps 755 mmHg 52%
    01:00 +30°C° 0 mm 5 mps 755 mmHg 50%
    02:00 +29°C° 0 mm 4 mps 754 mmHg 48%
    03:00 +29°C° 0 mm 4 mps 755 mmHg 50%
    04:00 +28°C° 0 mm 4 mps 755 mmHg 52%
    05:00 +28°C° 0 mm 4 mps 755 mmHg 53%
    06:00 +30°C° 0 mm 4 mps 755 mmHg 50%
    07:00 +33°C° 0 mm 4 mps 755 mmHg 46%
    08:00 +35°C° 0 mm 5 mps 755 mmHg 42%
    09:00 +36°C° 0 mm 5 mps 756 mmHg 42%
    10:00 +38°C° 0 mm 6 mps 756 mmHg 41%
    11:00 +39°C° 0 mm 6 mps 756 mmHg 40%
    12:00 +39°C° 0 mm 7 mps 756 mmHg 39%
    13:00 +39°C° 0 mm 7 mps 756 mmHg 38%
    14:00 +40°C° 0 mm 7 mps 756 mmHg 37%
    15:00 +39°C° 0 mm 7 mps 755 mmHg 38%
    16:00 +38°C° 0 mm 7 mps 755 mmHg 39%
    17:00 +36°C° 0 mm 7 mps 755 mmHg 40%
    18:00 +35°C° 0 mm 7 mps 755 mmHg 44%
    19:00 +34°C° 0 mm 7 mps 755 mmHg 48%
    20:00 +33°C° 0 mm 6 mps 756 mmHg 52%
    21:00 +32°C° 0 mm 6 mps 756 mmHg 52%
    22:00 +32°C° 0 mm 6 mps 756 mmHg 53%
    23:00 +30°C° 0 mm 5 mps 755 mmHg 53%

    Day after tomorrow, 27 August, Tuesday

    Time Temperature Precipitation Wind Pressure Humidity
    00:00 +30°C° 0 mm 4 mps 755 mmHg 55%
    01:00 +29°C° 0 mm 4 mps 755 mmHg 58%
    02:00 +29°C° 0 mm 3 mps 755 mmHg 60%
    03:00 +28°C° 0 mm 2 mps 755 mmHg 64%
    04:00 +27°C° 0 mm 2 mps 755 mmHg 67%
    05:00 +27°C° 0 mm 2 mps 755 mmHg 71%
    06:00 +29°C° 0 mm 2 mps 755 mmHg 62%
    07:00 +31°C° 0 mm 2 mps 756 mmHg 53%
    08:00 +34°C° 0 mm 2 mps 756 mmHg 44%
    09:00 +35°C° 0 mm 2 mps 756 mmHg 44%
    10:00 +36°C° 0 mm 3 mps 756 mmHg 44%
    11:00 +37°C° 0 mm 3 mps 756 mmHg 45%
    12:00 +37°C° 0 mm 4 mps 756 mmHg 43%
    13:00 +37°C° 0 mm 5 mps 756 mmHg 42%
    14:00 +39°C° 0 mm 6 mps 756 mmHg 41%
    15:00 +39°C° 0 mm 6 mps 755 mmHg 40%
    16:00 +38°C° 0 mm 6 mps 755 mmHg 40%
    17:00 +38°C° 0 mm 6 mps 755 mmHg 39%
    18:00 +35°C° 0 mm 6 mps 755 mmHg 45%
    19:00 +34°C° 0 mm 6 mps 755 mmHg 50%
    20:00 +32°C° 0 mm 6 mps 755 mmHg 56%
    21:00 +32°C° 0 mm 5 mps 755 mmHg 57%
    22:00 +30°C° 0 mm 5 mps 755 mmHg 57%
    23:00 +30°C° 0 mm 4 mps 755 mmHg 57%

    28 August, Wednesday

    Time Temperature Precipitation Wind Pressure Humidity
    00:00 +29°C° 0 mm 3 mps 755 mmHg 59%
    01:00 +29°C° 0 mm 3 mps 755 mmHg 61%
    02:00 +28°C° 0 mm 2 mps 754 mmHg 63%
    03:00 +28°C° 0 mm 2 mps 754 mmHg 62%
    04:00 +28°C° 0 mm 2 mps 754 mmHg 60%
    05:00 +28°C° 0 mm 2 mps 754 mmHg 59%
    06:00 +30°C° 0 mm 2 mps 754 mmHg 53%
    07:00 +32°C° 0 mm 2 mps 755 mmHg 48%
    08:00 +35°C° 0 mm 2 mps 755 mmHg 42%
    09:00 +36°C° 0 mm 3 mps 755 mmHg 41%
    10:00 +37°C° 0 mm 3 mps 755 mmHg 40%
    11:00 +38°C° 0 mm 4 mps 755 mmHg 39%
    12:00 +38°C° 0 mm 4 mps 755 mmHg 37%
    13:00 +39°C° 0 mm 5 mps 755 mmHg 36%
    14:00 +39°C° 0 mm 5 mps 754 mmHg 35%
    15:00 +39°C° 0 mm 6 mps 754 mmHg 37%
    16:00 +38°C° 0 mm 6 mps 754 mmHg 39%
    17:00 +38°C° 0 mm 7 mps 754 mmHg 42%
    18:00 +35°C° 0 mm 6 mps 754 mmHg 46%
    19:00 +34°C° 0 mm 6 mps 754 mmHg 51%
    20:00 +32°C° 0 mm 6 mps 754 mmHg 55%
    21:00 +32°C° 0 mm 5 mps 754 mmHg 53%
    22:00 +30°C° 0 mm 4 mps 754 mmHg 51%
    23:00 +30°C° 0 mm 3 mps 754 mmHg 48%

    29 August, Thursday

    Time Temperature Precipitation Wind Pressure Humidity
    00:00 +30°C° 0 mm 3 mps 754 mmHg 47%
    01:00 +29°C° 0 mm 3 mps 754 mmHg 45%
    02:00 +28°C° 0 mm 2 mps 754 mmHg 43%
    03:00 +28°C° 0 mm 2 mps 754 mmHg 43%
    04:00 +28°C° 0 mm 2 mps 754 mmHg 43%
    05:00 +27°C° 0 mm 2 mps 754 mmHg 43%
    06:00 +30°C° 0 mm 3 mps 754 mmHg 39%
    07:00 +33°C° 0 mm 3 mps 754 mmHg 34%
    08:00 +35°C° 0 mm 3 mps 754 mmHg 30%
    09:00 +36°C° 0 mm 3 mps 755 mmHg 32%
    10:00 +37°C° 0 mm 3 mps 755 mmHg 34%
    11:00 +37°C° 0 mm 3 mps 755 mmHg 36%
    12:00 +38°C° 0 mm 4 mps 755 mmHg 32%
    13:00 +40°C° 0 mm 4 mps 754 mmHg 27%
    14:00 +41°C° 0 mm 5 mps 754 mmHg 23%
    15:00 +41°C° 0 mm 6 mps 754 mmHg 21%
    16:00 +40°C° 0 mm 7 mps 754 mmHg 19%
    17:00 +40°C° 0 mm 8 mps 753 mmHg 17%
    18:00 +38°C° 0 mm 8 mps 754 mmHg 20%
    19:00 +35°C° 0 mm 7 mps 754 mmHg 23%
    20:00 +33°C° 0 mm 7 mps 754 mmHg 25%
    21:00 +32°C° 0 mm 7 mps 754 mmHg 25%
    22:00 +30°C° 0 mm 7 mps 754 mmHg 25%
    23:00 +30°C° 0 mm 6 mps 754 mmHg 26%

    30 August, Friday

    Time Temperature Precipitation Wind Pressure Humidity
    00:00 +29°C° 0 mm 5 mps 754 mmHg 26%
    01:00 +29°C° 0 mm 4 mps 754 mmHg 27%
    02:00 +28°C° 0 mm 3 mps 754 mmHg 27%
    03:00 +28°C° 0 mm 3 mps 754 mmHg 29%
    04:00 +27°C° 0 mm 3 mps 754 mmHg 31%
    05:00 +27°C° 0 mm 2 mps 754 mmHg 33%
    06:00 +30°C° 0 mm 2 mps 754 mmHg 28%
    07:00 +34°C° 0 mm 3 mps 754 mmHg 23%
    08:00 +37°C° 0 mm 3 mps 754 mmHg 17%
    09:00 +38°C° 0 mm 4 mps 755 mmHg 18%
    10:00 +39°C° 0 mm 5 mps 755 mmHg 19%
    11:00 +40°C° 0 mm 6 mps 755 mmHg 19%
    12:00 +40°C° 0 mm 7 mps 755 mmHg 20%
    13:00 +40°C° 0 mm 8 mps 755 mmHg 20%
    14:00 +40°C° 0 mm 9 mps 755 mmHg 21%
    15:00 +39°C° 0 mm 9 mps 754 mmHg 23%
    16:00 +38°C° 0 mm 9 mps 754 mmHg 25%
    17:00 +37°C° 0 mm 9 mps 754 mmHg 26%
    18:00 +35°C° 0 mm 8 mps 754 mmHg 29%
    19:00 +33°C° 0 mm 7 mps 754 mmHg 31%
    20:00 +30°C° 0 mm 7 mps 754 mmHg 34%
    21:00 +30°C° 0 mm 6 mps 754 mmHg 33%
    22:00 +29°C° 0 mm 6 mps 754 mmHg 32%
    23:00 +28°C° 0 mm 5 mps 754 mmHg 31%
    Show more